DW5164 Weather Reports


time (UTC)temp
C
wind
direction
speed
KPH
gust
KPH
rain 1hr
cm
rain 24hr
cm
rain mn
cm
humidity
%
barometer
mb
20260505173533 16 70 8.0 12.9 0.00 0.41 0.41 85 1011.6
20260505172531 16 58 8.0 16.1 0.00 0.41 0.41 85 1011.5
20260505172031 16 57 11.3 19.3 0.00 0.41 0.41 85 1011.5
20260505171532 16 64 4.8 14.5 0.00 0.41 0.41 85 1011.5
20260505171032 16 52 8.0 19.3 0.00 0.41 0.41 85 1011.4
20260505170532 16 66 11.3 19.3 0.00 0.41 0.41 86 1011.4
20260505170032 16 80 9.7 16.1 0.00 0.41 0.41 86 1011.5
20260505165533 16 62 12.9 19.3 0.00 0.41 0.41 86 1011.5
20260505164532 16 75 12.9 19.3 0.00 0.41 0.41 85 1011.5
20260505164032 16 70 14.5 24.1 0.00 0.41 0.41 84 1011.5
20260505163532 17 77 12.9 20.9 0.00 0.41 0.41 84 1011.6
20260505162034 17 64 9.7 14.5 0.00 0.41 0.41 83 1011.5
20260505161532 17 60 11.3 16.1 0.00 0.41 0.41 83 1011.5
20260505161035 17 90 11.3 19.3 0.00 0.41 0.41 83 1011.5
20260505160532 17 73 14.5 20.9 0.00 0.41 0.41 83 1011.6
20260505153031 17 71 9.7 20.9 0.00 0.41 0.41 84 1011.9
20260505152031 17 55 8.0 19.3 0.00 0.41 0.41 84 1011.8
20260505151531 17 59 14.5 19.3 0.00 0.41 0.41 83 1011.8
20260505151032 17 65 9.7 19.3 0.00 0.41 0.41 83 1011.8
20260505150532 17 49 11.3 19.3 0.00 0.41 0.41 83 1011.8
20260505140533 17 72 14.5 22.5 0.00 0.41 0.41 84 1011.9
20260505125031 16 82 16.1 24.1 0.00 0.41 0.41 87 1012.5
20260505124531 16 78 11.3 16.1 0.00 0.41 0.41 88 1012.4
20260505124031 16 75 11.3 19.3 0.00 0.41 0.41 88 1012.4
20260505123531 16 87 9.7 14.5 0.00 0.41 0.41 89 1012.5
20260505123031 15 77 6.4 14.5 0.00 0.41 0.41 90 1012.6
20260505122534 15 90 11.3 19.3 0.00 0.41 0.41 90 1012.7
20260505122031 15 97 9.7 19.3 0.00 0.41 0.41 90 1012.7
20260505121542 15 76 4.8 19.3 0.00 0.41 0.41 90 1012.7
20260505120531 15 77 11.3 19.3 0.00 0.41 0.41 91 1012.7
20260505120034 15 86 9.7 14.5 0.00 0.41 0.41 91 1012.7
20260505115030 15 88 9.7 22.5 0.00 0.41 0.41 91 1012.7
20260505114531 15 72 14.5 20.9 0.00 0.41 0.41 92 1012.7
20260505114032 15 64 14.5 20.9 0.00 0.41 0.41 92 1012.8
20260505113531 15 58 8.0 19.3 0.00 0.41 0.41 93 1012.9
20260505113032 15 75 11.3 19.3 0.00 0.41 0.41 92 1012.9
20260505112530 15 86 9.7 12.9 0.00 0.41 0.41 92 1012.9
20260505112038 15 85 11.3 16.1 0.00 0.41 0.41 93 1012.9
20260505111546 15 99 9.7 20.9 0.00 0.41 0.41 93 1012.9
20260505111031 15 69 14.5 16.1 0.00 0.41 0.41 93 1012.9
20260505110531 15 86 11.3 19.3 0.00 0.41 0.41 94 1013.0
20260505102031 13 119 6.4 11.3 0.00 0.41 0.41 96 1013.1
20260505101031 13 65 8.0 14.5 0.03 0.41 0.41 96 1012.9
20260505100531 13 60 6.4 11.3 0.05 0.41 0.41 96 1012.9
20260505100032 13 99 4.8 11.3 0.05 0.41 0.41 96 1012.9
20260505095530 13 75 9.7 11.3 0.05 0.41 0.41 96 1013.0
20260505095031 13 116 4.8 8.0 0.08 0.41 0.41 96 1013.0
20260505094530 13 105 8.0 12.9 0.08 0.41 0.41 96 1013.0
20260505094033 13 119 8.0 11.3 0.10 0.41 0.41 96 1013.0
20260505093530 13 98 8.0 11.3 0.10 0.41 0.41 96 1013.0
20260505092531 13 82 4.8 14.5 0.13 0.41 0.41 96 1012.9
20260505092032 13 89 8.0 14.5 0.15 0.41 0.41 96 1012.9
20260505091530 13 76 8.0 11.3 0.15 0.38 0.38 95 1012.9
20260505090530 13 77 9.7 12.9 0.15 0.36 0.36 95 1012.8
20260505090032 13 78 8.0 11.3 0.15 0.33 0.33 95 1012.8
20260505085531 13 114 4.8 9.7 0.18 0.33 0.33 95 1012.9
20260505085031 13 101 4.8 11.3 0.15 0.33 0.33 95 1012.9
20260505084536 13 84 4.8 11.3 0.18 0.33 0.33 94 1012.7
20260505084030 13 79 8.0 9.7 0.18 0.30 0.30 94 1012.7
20260505083530 13 85 6.4 12.9 0.18 0.30 0.30 94 1012.7
20260505083031 13 92 4.8 9.7 0.18 0.28 0.28 94 1012.7
20260505082533 13 80 3.2 4.8 0.20 0.28 0.28 94 1012.7
20260505082030 13 80 1.6 4.8 0.18 0.25 0.25 94 1012.6
20260505081530 13 113 8.0 11.3 0.15 0.23 0.23 94 1012.5
20260505081030 13 93 4.8 11.3 0.15 0.23 0.23 94 1012.4
20260505080530 13 93 3.2 9.7 0.15 0.20 0.20 94 1012.4
20260505075032 13 91 4.8 11.3 0.15 0.15 0.15 93 1012.6
20260505074530 13 120 4.8 8.0 0.15 0.15 0.15 93 1012.8
20260505074030 13 127 3.2 8.0 0.13 0.15 0.15 93 1012.8
20260505073530 14 128 3.2 8.0 0.10 0.13 0.13 93 1012.9
20260505073030 14 144 3.2 4.8 0.10 0.10 0.10 92 1012.8
20260505072530 14 160 3.2 4.8 0.10 0.10 0.10 92 1012.8
20260505072030 14 171 3.2 4.8 0.08 0.08 0.08 92 1012.8
20260505071530 14 190 3.2 4.8 0.08 0.08 0.08 91 1012.7
20260505071030 14 164 0.0 4.8 0.08 0.08 0.08 91 1012.7
20260505070530 14 168 3.2 4.8 0.05 0.05 0.05 90 1012.8
20260505070030 15 174 3.2 4.8 0.05 0.05 0.05 91 1012.8
20260505065030 15 170 4.8 8.0 0.03 0.03 0.03 89 1012.8
20260505064529 15 184 3.2 4.8 0.03 0.03 0.03 89 1012.7
20260505064030 15 160 3.2 4.8 0.03 0.03 0.03 88 1012.6
20260505063030 15 150 3.2 4.8 0.00 0.00 0.00 88 1012.4
20260505062530 15 163 4.8 4.8 0.00 0.00 0.00 88 1012.4
20260505062030 15 138 4.8 8.0 0.00 0.00 0.00 88 1012.3
20260505061531 15 125 3.2 8.0 0.00 0.00 0.00 88 1012.2
20260505061030 15 113 6.4 12.9 0.00 0.00 0.00 88 1012.2
20260505060531 15 112 1.6 12.9 0.00 0.00 0.00 88 1012.2
20260505055530 15 111 1.6 3.2 0.00 0.00 0.00 88 1012.1
20260505054530 15 68 0.0 4.8 0.00 0.00 0.00 86 1011.9
20260505054046 15 71 4.8 4.8 0.00 0.00 0.00 85 1011.8
20260505053032 14 71 4.8 8.0 0.00 0.00 0.00 84 1011.8
20260505052531 14 80 3.2 4.8 0.00 0.00 0.00 84 1011.8
20260505051530 14 64 3.2 8.0 0.00 0.00 0.00 83 1011.8
20260505050530 14 49 3.2 4.8 0.00 0.00 0.00 85 1011.8
20260505041529 15 84 0.0 3.2 0.00 0.00 0.00 78 1011.9
20260505041030 15 132 0.0 0.0 0.00 0.00 0.00 76 1011.9
20260505040029 15 267 0.0 0.0 0.00 0.00 0.00 74 1011.9
20260505035529 15 267 0.0 1.6 0.00 0.00 0.00 70 1011.9
20260505035029 15 299 0.0 1.6 0.00 0.00 0.00 70 1011.8
20260505034529 15 333 0.0 0.0 0.00 0.00 0.00 70 1011.8
20260505033529 15 336 0.0 1.6 0.00 0.00 0.00 72 1011.9
20260505033030 15 325 0.0 1.6 0.00 0.00 0.00 72 1011.9
20260505032529 15 196 0.0 0.0 0.00 0.00 0.00 71 1012.0
20260505032030 15 196 0.0 0.0 0.00 0.00 0.00 71 1012.1
20260505031029 15 196 0.0 4.8 0.00 0.00 0.00 70 1012.2
20260505030529 15 207 1.6 3.2 0.00 0.00 0.00 70 1012.3
20260505030029 15 216 1.6 3.2 0.00 0.00 0.00 70 1012.3
20260505025531 15 216 1.6 4.8 0.00 0.00 0.00 69 1012.3
20260505024529 15 215 1.6 4.8 0.00 0.00 0.00 70 1012.3
20260505024029 15 211 3.2 4.8 0.00 0.00 0.00 71 1012.3
20260505023530 15 171 0.0 1.6 0.00 0.00 0.00 71 1012.3
20260505022529 15 199 3.2 4.8 0.00 0.00 0.00 72 1012.4
20260505022029 15 105 0.0 0.0 0.00 0.00 0.00 70 1012.3
20260505021529 15 105 1.6 4.8 0.00 0.00 0.00 69 1012.3
20260505021030 15 106 3.2 4.8 0.00 0.00 0.00 68 1012.4
20260505020030 15 60 0.0 0.0 0.00 0.00 0.00 69 1012.1
20260505015529 15 60 0.0 0.0 0.00 0.00 0.00 70 1012.0
20260505015030 15 60 0.0 0.0 0.00 0.00 0.00 70 1012.3
20260505014029 15 60 0.0 0.0 0.00 0.00 0.00 69 1012.4
20260505013530 15 60 0.0 0.0 0.00 0.00 0.00 70 1012.5
20260505013029 15 60 0.0 0.0 0.00 0.00 0.00 70 1012.6
20260505012529 15 60 0.0 0.0 0.00 0.00 0.00 70 1012.8
20260505012030 15 60 0.0 0.0 0.00 0.00 0.00 69 1012.8
20260505011529 15 60 0.0 0.0 0.00 0.00 0.00 69 1012.9
20260505011044 15 60 0.0 0.0 0.00 0.00 0.00 69 1012.9
20260505010529 15 60 0.0 0.0 0.00 0.00 0.00 69 1013.0
20260505010029 15 60 0.0 0.0 0.00 0.00 0.00 69 1013.1
20260505005536 15 60 0.0 0.0 0.00 0.00 0.00 68 1013.2
20260505005030 15 60 0.0 0.0 0.00 0.00 0.00 69 1013.2
20260505004529 15 60 0.0 0.0 0.00 0.00 0.00 68 1013.3
20260505004029 15 60 0.0 0.0 0.00 0.00 0.00 68 1013.3
20260505003529 15 60 0.0 1.6 0.00 0.00 0.00 67 1013.3
20260505002031 16 11 0.0 0.0 0.00 0.00 0.00 65 1013.5
20260505001529 16 11 0.0 0.0 0.00 0.00 0.00 65 1013.5
20260505001044 16 341 1.6 9.7 0.00 0.00 0.00 64 1013.5
20260505000028 16 293 8.0 11.3 0.00 0.00 0.00 64 1013.5
20260504235529 16 283 9.7 14.5 0.00 0.00 0.00 63 1013.5
20260504235028 16 294 9.7 16.1 0.00 0.00 0.00 64 1013.5
20260504233529 16 270 8.0 11.3 0.00 0.00 0.00 65 1013.7
20260504231529 15 272 4.8 11.3 0.00 0.00 0.00 65 1013.9
20260504231029 15 280 8.0 9.7 0.00 0.00 0.00 65 1014.0
20260504230528 15 275 6.4 9.7 0.00 0.00 0.00 64 1014.0
20260504225528 16 292 6.4 8.0 0.00 0.00 0.00 64 1014.1
20260504224529 16 301 4.8 8.0 0.00 0.00 0.00 64 1014.2
20260504224029 16 297 4.8 9.7 0.00 0.00 0.00 63 1014.3
20260504222529 15 280 8.0 11.3 0.00 0.00 0.00 65 1014.4
20260504222028 15 272 4.8 8.0 0.00 0.00 0.00 65 1014.5
20260504221528 15 271 4.8 8.0 0.00 0.00 0.00 65 1014.5
20260504220029 15 255 4.8 8.0 0.00 0.00 0.00 66 1014.5
20260504215528 15 246 6.4 8.0 0.00 0.00 0.00 67 1014.5
20260504214528 16 59 0.0 0.0 0.00 0.00 0.00 67 1014.4
20260504214028 16 59 0.0 1.6 0.00 0.00 0.00 67 1014.4
20260504213529 16 59 0.0 0.0 0.00 0.00 0.00 67 1014.4
20260504213028 16 59 0.0 0.0 0.00 0.00 0.00 67 1014.5
20260504212528 16 59 0.0 0.0 0.00 0.00 0.00 67 1014.5
20260504212029 16 59 0.0 0.0 0.00 0.00 0.00 66 1014.5
20260504211528 16 59 0.0 3.2 0.00 0.00 0.00 66 1014.5
20260504211028 16 98 1.6 3.2 0.00 0.00 0.00 65 1014.6
20260504205531 16 119 8.0 11.3 0.00 0.00 0.00 63 1014.7
20260504205028 17 121 1.6 4.8 0.00 0.00 0.00 61 1014.6
20260504204528 17 298 0.0 0.0 0.00 0.00 0.00 59 1014.5
20260504204028 17 298 0.0 0.0 0.00 0.00 0.00 58 1014.4
20260504203529 17 298 0.0 0.0 0.00 0.00 0.00 57 1014.5
20260504203028 18 298 0.0 1.6 0.00 0.00 0.00 56 1014.4
20260504202531 18 299 0.0 1.6 0.00 0.00 0.00 56 1014.4
20260504201528 18 303 3.2 4.8 0.00 0.00 0.00 55 1014.3
20260504201028 18 295 1.6 4.8 0.00 0.00 0.00 56 1014.4
20260504200528 18 302 3.2 4.8 0.00 0.00 0.00 55 1014.3
20260504200031 18 294 1.6 3.2 0.00 0.00 0.00 54 1014.3
20260504195528 18 311 3.2 4.8 0.00 0.00 0.00 54 1014.2
20260504195028 18 316 3.2 4.8 0.00 0.00 0.00 54 1014.2
20260504194027 19 315 3.2 4.8 0.00 0.00 0.00 53 1014.2
20260504193528 19 296 3.2 4.8 0.00 0.00 0.00 54 1014.2
20260504192530 19 294 1.6 4.8 0.00 0.00 0.00 53 1014.1
20260504191529 20 307 1.6 3.2 0.00 0.00 0.00 52 1014.0
20260504191029 20 313 1.6 4.8 0.00 0.00 0.00 52 1014.0
20260504185536 20 315 1.6 4.8 0.00 0.00 0.00 50 1013.9
20260504183528 21 293 3.2 4.8 0.00 0.00 0.00 49 1013.9
20260504181027 22 310 3.2 4.8 0.00 0.00 0.00 46 1013.8
20260504180042 22 313 3.2 4.8 0.00 0.00 0.00 45 1013.9
20260504175027 23 298 3.2 4.8 0.00 0.00 0.00 44 1013.8
20260504174530 23 307 4.8 8.0 0.00 0.00 0.00 43 1013.8
20260504174035 23 308 3.2 9.7 0.00 0.00 0.00 42 1013.8